TimeCST,TemperatureF,Dew PointF,Humidity,Sea Level PressureIn,VisibilityMPH,Wind Direction,Wind SpeedMPH,Gust SpeedMPH,PrecipitationIn,Events,Conditions,WindDirDegrees,DateUTC
12:43 AM,66.2,62.6,88,29.89,10.0,South,18.4,24.2,N/A,,Overcast,190,2012-12-10 06:43:00
12:53 AM,66.9,62.1,84,29.86,10.0,South,16.1,24.2,N/A,,Overcast,180,2012-12-10 06:53:00
1:53 AM,66.9,62.1,84,29.85,10.0,South,13.8,-,N/A,,Overcast,190,2012-12-10 07:53:00
2:53 AM,66.9,63.0,87,29.83,10.0,South,19.6,24.2,N/A,,Overcast,190,2012-12-10 08:53:00
3:53 AM,66.9,63.0,87,29.80,10.0,South,12.7,23.0,N/A,,Overcast,190,2012-12-10 09:53:00
4:53 AM,66.0,62.1,87,29.82,6.0,NW,20.7,28.8,0.01,Rain,Light Rain,310,2012-12-10 10:53:00
4:56 AM,62.6,57.2,82,29.84,2.5,NW,19.6,28.8,0.04,Rain,Heavy Rain,310,2012-12-10 10:56:00
5:05 AM,60.8,57.2,88,29.85,1.8,Variable,3.5,-,0.18,Rain,Heavy Rain,0,2012-12-10 11:05:00
5:13 AM,60.8,57.2,88,29.83,2.5,Variable,3.5,-,0.26,Rain-Thunderstorm,Thunderstorms and Rain,0,2012-12-10 11:13:00
5:22 AM,60.8,57.2,88,29.83,6.0,West,4.6,-,0.27,Rain-Thunderstorm,Light Thunderstorms and Rain,280,2012-12-10 11:22:00
5:48 AM,60.8,59.0,94,29.85,2.0,SSW,4.6,-,0.38,Rain-Thunderstorm,Heavy Thunderstorms and Rain,210,2012-12-10 11:48:00
5:53 AM,60.1,59.0,96,29.84,2.5,SSW,3.5,-,0.39,Rain,Rain,210,2012-12-10 11:53:00
6:02 AM,60.8,59.0,94,29.85,2.0,South,4.6,-,0.07,Rain,Heavy Rain,170,2012-12-10 12:02:00
6:12 AM,60.8,59.0,94,29.85,4.0,South,4.6,-,0.10,Rain,Rain,190,2012-12-10 12:12:00
6:38 AM,60.8,59.0,94,29.85,7.0,SSW,6.9,-,0.15,Rain,Light Rain,200,2012-12-10 12:38:00
6:45 AM,60.8,59.0,94,29.84,6.0,South,5.8,-,0.17,Rain,Rain,190,2012-12-10 12:45:00
6:53 AM,60.1,59.0,96,29.83,6.0,SSW,5.8,-,0.18,Rain,Light Rain,200,2012-12-10 12:53:00
7:12 AM,60.8,59.0,94,29.84,4.0,South,4.6,-,0.03,Rain,Rain,190,2012-12-10 13:12:00
7:48 AM,60.8,57.2,88,29.83,1.8,Calm,Calm,-,0.11,Rain,Rain,0,2012-12-10 13:48:00
7:53 AM,59.0,57.9,96,29.82,1.2,South,3.5,-,0.15,Rain,Rain,180,2012-12-10 13:53:00
8:53 AM,59.0,59.0,100,29.82,1.2,South,3.5,-,0.35,Rain,Heavy Rain,190,2012-12-10 14:53:00
9:03 AM,60.8,59.0,94,29.83,1.8,South,3.5,-,0.05,Rain-Thunderstorm,Thunderstorms and Rain,190,2012-12-10 15:03:00
9:42 AM,60.8,59.0,94,29.84,1.8,South,4.6,-,0.28,Rain,Rain,170,2012-12-10 15:42:00
9:45 AM,60.8,59.0,94,29.84,2.0,South,3.5,-,0.29,Rain,Rain,170,2012-12-10 15:45:00
9:53 AM,60.1,59.0,96,29.82,2.5,South,5.8,-,0.32,Rain,Rain,190,2012-12-10 15:53:00
10:10 AM,60.8,59.0,94,29.83,4.0,South,8.1,-,0.05,Rain,Light Rain,190,2012-12-10 16:10:00
10:53 AM,61.0,59.0,93,29.81,7.0,SSW,10.4,-,0.09,Rain,Light Rain,210,2012-12-10 16:53:00
10:58 AM,60.8,59.0,94,29.81,8.0,SSW,9.2,-,0.01,Rain,Light Rain,210,2012-12-10 16:58:00
11:06 AM,60.8,59.0,94,29.80,6.0,SW,6.9,-,0.02,Rain,Light Rain,220,2012-12-10 17:06:00
11:25 AM,62.6,59.0,88,29.79,10.0,SSW,9.2,-,0.02,,Overcast,210,2012-12-10 17:25:00
11:53 AM,62.1,60.1,93,29.76,3.0,SSW,11.5,-,0.07,Rain,Rain,200,2012-12-10 17:53:00
12:08 PM,62.6,60.8,94,29.77,6.0,SW,11.5,-,0.01,Rain,Light Rain,220,2012-12-10 18:08:00
12:17 PM,62.6,60.8,94,29.77,8.0,SW,10.4,-,0.02,Rain,Light Rain,220,2012-12-10 18:17:00
12:40 PM,62.6,60.8,94,29.76,10.0,SW,11.5,-,0.02,Rain,Light Rain,220,2012-12-10 18:40:00
12:53 PM,63.0,60.1,90,29.75,10.0,SW,11.5,-,0.02,Rain,Light Rain,230,2012-12-10 18:53:00
1:00 PM,62.6,60.8,94,29.75,10.0,SW,11.5,-,0.00,Rain,Light Rain,220,2012-12-10 19:00:00
1:53 PM,63.0,60.1,90,29.73,10.0,WSW,10.4,-,0.00,,Overcast,240,2012-12-10 19:53:00
2:53 PM,61.0,59.0,93,29.74,10.0,WNW,13.8,23.0,0.00,,Overcast,290,2012-12-10 20:53:00
3:25 PM,55.4,53.6,94,29.78,10.0,West,15.0,-,N/A,,Overcast,280,2012-12-10 21:25:00
3:53 PM,54.0,53.1,97,29.80,2.0,WNW,10.4,-,N/A,,Overcast,290,2012-12-10 21:53:00
4:10 PM,53.6,51.8,94,29.82,2.0,WNW,13.8,21.9,N/A,,Overcast,300,2012-12-10 22:10:00
4:15 PM,53.6,51.8,94,29.82,9.0,WNW,11.5,21.9,N/A,,Overcast,300,2012-12-10 22:15:00
4:53 PM,52.0,50.0,93,29.82,3.0,NNW,11.5,-,N/A,,Overcast,330,2012-12-10 22:53:00
5:32 PM,50.0,48.2,94,29.85,2.5,NW,11.5,-,N/A,,Overcast,310,2012-12-10 23:32:00
5:53 PM,48.9,48.0,97,29.86,2.5,NNW,15.0,-,0.00,,Overcast,330,2012-12-10 23:53:00
6:06 PM,48.2,46.4,93,29.87,3.0,NNW,11.5,-,N/A,,Overcast,330,2012-12-11 00:06:00
6:53 PM,46.9,46.0,97,29.89,3.0,NNW,9.2,-,N/A,,Overcast,330,2012-12-11 00:53:00
7:53 PM,46.0,44.1,93,29.92,10.0,NW,13.8,18.4,N/A,,Overcast,310,2012-12-11 01:53:00
8:53 PM,44.1,41.0,89,29.94,10.0,NW,13.8,-,N/A,,Overcast,320,2012-12-11 02:53:00
9:30 PM,44.6,39.2,81,29.96,10.0,NW,11.5,-,N/A,,Overcast,320,2012-12-11 03:30:00
9:53 PM,43.0,39.9,89,29.96,10.0,NW,9.2,-,N/A,,Overcast,320,2012-12-11 03:53:00
10:53 PM,42.1,37.0,82,29.98,10.0,NNW,11.5,-,N/A,,Overcast,330,2012-12-11 04:53:00
11:53 PM,39.9,35.1,83,29.98,10.0,NNW,12.7,-,N/A,,Overcast,340,2012-12-11 05:53:00